Content
SEND FEEDBACK

Daily
Averages
Monthly
Summary
United Kingdom

LONDON, ENGLAND


Home > Europe > United Kingdom > England
Elevation: 61 meters     Latitude: 51 09N     Longitude: 000 11W

WEATHER
 
SELECT A DAY
Number of Records: 293,611;   Date Range: 7/1/96 - 8/18/14
 
SHARE

PRINT THIS DATA

[ ← Previous Day ]
WEATHER ALMANAC - 22 MARCH, 2013
[ Next Day → ]
[ °F ]   °C
Weather ElementAverageHighLow
Temperature4.3 °C8 °C (12:50 pm)2 °C (3:50 am)
Dewpoint1.3 °C3 °C (1:20 pm)0 °C (5:50 am)
Humidity81.3 %93 % (3:50 am)66 % (12:50 pm)
Barometer1008.5 hPa1012.2 hPa (12:50 am)1006.1 hPa (2:20 pm)
Wind Speed23.2 km/h31.5 km/h (6:20 pm)
Weather ElementAverage
Visibility6.1 km
Wind DirectionENE (80.9 °)

Weather ElementTotal
Precipitation---
Heating Degree Days13.3 (Base 18.3)
Averaged from 47 records on 22 March, 2013
WEATHER CONDITIONS BREAKOUT
WIND DIRECTION BREAKOUT
WEATHER BY HOUR - 22 MARCH, 2013
[ °F ]   °C
Local TimeTemperatureDewpointHumidityBarometerVisibilityWind DirectionWind SpeedGust SpeedPrecipitationEventsConditions
12:50 AM3 °C1 °C87 %1012.2 hPa3.5 kmEast (90°)22.2 km/hRainLight Rain
1:20 AM3 °C1 °C87 %1012.2 hPaEast (90°)22.2 km/hRainLight Rain
1:50 AM3 °C1 °C87 %1012.2 hPa2.7 kmEast (100°)22.2 km/hRainLight Rain
2:20 AM3 °C1 °C87 %1012.2 hPa4 kmEast (90°)22.2 km/hRainLight Rain
2:50 AM3 °C1 °C87 %1011.2 hPaEast (90°)24.1 km/hRainLight Rain
3:20 AM3 °C1 °C87 %1011.2 hPaEast (90°)22.2 km/hDrizzle
3:50 AM2 °C1 °C93 %1010.2 hPaEast (90°)22.2 km/hRainRain
4:20 AM2 °C1 °C93 %1010.2 hPaEast (80°)20.4 km/hRainLight Rain
4:50 AM2 °C1 °C93 %1010.2 hPa3.5 kmEast (90°)18.5 km/hRainLight Rain
5:20 AM2 °C1 °C93 %1010.2 hPaEast (80°)16.7 km/hRainLight Rain
5:50 AM2 °C0 °C87 %1010.2 hPaEast (90°)18.5 km/hRainLight Rain
6:20 AM2 °C0 °C87 %1010.2 hPaEast (80°)20.4 km/hRainLight Rain
6:50 AM2 °C0 °C87 %1010.2 hPa6 kmEast (80°)18.5 km/hRainLight Rain
7:20 AM3 °C0 °C81 %1010.2 hPa9 kmEast (90°)20.4 km/hMostly Cloudy
7:50 AM3 °C0 °C81 %1010.2 hPa8 kmEast (80°)22.2 km/hScattered Clouds
8:20 AM3 °C0 °C81 %1009.1 hPa9 kmEast (80°)24.1 km/hScattered Clouds
8:50 AM4 °C0 °C75 %1009.1 hPa8 kmEast (80°)20.4 km/h
9:20 AM4 °C1 °C81 %1009.1 hPa8 kmEast (90°)22.2 km/h
9:50 AM5 °C1 °C76 %1009.1 hPa8 kmEast (80°)24.1 km/h
10:20 AM5 °C1 °C76 %1008.1 hPa8 kmEast (90°)22.2 km/h
10:50 AM5 °C1 °C76 %1008.1 hPa9 kmEast (80°)24.1 km/h
11:20 AM6 °C1 °C70 %1008.1 hPa8 kmEast (90°)22.2 km/h
11:50 AM6 °C1 °C70 %1007.1 hPa8 kmEast (80°)25.9 km/h
12:20 PM7 °C2 °C71 %1007.1 hPa6.9 kmEast (80°)22.2 km/h
12:50 PM8 °C2 °C66 %1007.1 hPa8 kmEast (90°)25.9 km/h
1:20 PM8 °C3 °C71 %1007.1 hPa8 kmEast (80°)24.1 km/h
1:50 PM8 °C3 °C71 %1007.1 hPa8 kmENE (70°)24.1 km/h
2:20 PM8 °C2 °C66 %1006.1 hPa8 kmENE (70°)25.9 km/h
2:50 PM7 °C2 °C71 %1006.1 hPa6.9 kmENE (70°)24.1 km/h
3:20 PM7 °C2 °C71 %1007.1 hPa6.9 kmENE (70°)20.4 km/hMostly Cloudy
3:50 PM6 °C2 °C76 %1006.1 hPa5 kmENE (70°)27.8 km/hRainLight Rain
4:20 PM5 °C2 °C81 %1006.1 hPa4.5 kmENE (70°)24.1 km/hRainLight Rain
4:50 PM5 °C2 °C81 %1006.1 hPa5 kmENE (70°)20.4 km/hRainLight Rain
5:20 PM5 °C2 °C81 %1006.1 hPaENE (70°)22.2 km/hRainLight Rain
5:50 PM4 °C2 °C87 %1006.1 hPaENE (70°)22.2 km/hRainLight Rain
6:20 PM4 °C1 °C81 %1006.1 hPa4 kmENE (70°)31.5 km/hRainLight Rain
6:50 PM4 °C1 °C81 %1007.1 hPa4 kmEast (80°)24.1 km/hRainLight Rain
7:20 PM4 °C1 °C81 %1007.1 hPa3.5 kmEast (80°)24.1 km/hRainLight Rain
7:50 PM4 °C2 °C87 %1007.1 hPaEast (80°)25.9 km/hRainLight Rain
8:20 PM4 °C1 °C81 %1007.1 hPa4 kmEast (80°)25.9 km/hRainLight Rain
8:50 PM4 °C2 °C87 %1007.1 hPa4 kmEast (80°)25.9 km/hRainLight Rain
9:20 PM4 °C2 °C87 %1007.1 hPa4 kmEast (80°)25.9 km/hHaze
9:50 PM4 °C2 °C87 %1007.1 hPa4 kmEast (80°)24.1 km/hHaze
10:20 PM4 °C2 °C87 %1007.1 hPa4 kmEast (80°)22.2 km/hHaze
10:50 PM4 °C1 °C81 %1006.1 hPaENE (70°)24.1 km/hHaze
11:20 PM4 °C1 °C81 %1006.1 hPaEast (80°)25.9 km/hHaze
11:50 PM3 °C1 °C87 %1006.1 hPaEast (80°)24.1 km/hHaze
Hourly data recorded from EGKK, located 0 kilometers away from London, England







STORIES FROM OUR PARTNERS